owner,sensor,date,latitude,longitude,sea_surface_height_above_sea_level,qcFlag 
WAVCIS,ioos:station:WAVCIS:CSI16:1,2010-07-01T00:00:00Z,29.4012,-89.0355,9.445,11111222 
WAVCIS,ioos:station:WAVCIS:CSI16:1,2010-07-01T01:00:00Z,29.4012,-89.0355,9.451,11111222 
WAVCIS,ioos:station:WAVCIS:CSI16:1,2010-07-01T02:00:00Z,29.4012,-89.0355,9.451,11111222 
WAVCIS,ioos:station:WAVCIS:CSI16:1,2010-07-01T03:00:00Z,29.4012,-89.0355,9.447,11111222 
WAVCIS,ioos:station:WAVCIS:CSI16:1,2010-07-01T04:00:00Z,29.4012,-89.0355,9.459,11111222 
WAVCIS,ioos:station:WAVCIS:CSI16:1,2010-07-01T05:00:00Z,29.4012,-89.0355,9.467,11111222 
WAVCIS,ioos:station:WAVCIS:CSI16:1,2010-07-01T06:00:00Z,29.4012,-89.0355,9.489,11111222 
WAVCIS,ioos:station:WAVCIS:CSI16:1,2010-07-01T07:00:00Z,29.4012,-89.0355,9.499,11111222 
WAVCIS,ioos:station:WAVCIS:CSI16:1,2010-07-01T08:00:00Z,29.4012,-89.0355,9.551,11111222 
WAVCIS,ioos:station:WAVCIS:CSI16:1,2010-07-01T09:00:00Z,29.4012,-89.0355,9.539,11111222 
WAVCIS,ioos:station:WAVCIS:CSI16:1,2010-07-01T10:00:00Z,29.4012,-89.0355,9.572,11111222 
WAVCIS,ioos:station:WAVCIS:CSI16:1,2010-07-01T11:00:00Z,29.4012,-89.0355,9.591,11111222 
WAVCIS,ioos:station:WAVCIS:CSI16:1,2010-07-01T12:00:00Z,29.4012,-89.0355,9.614,11111222 
WAVCIS,ioos:station:WAVCIS:CSI16:1,2010-07-01T13:00:00Z,29.4012,-89.0355,9.637,11111222 
WAVCIS,ioos:station:WAVCIS:CSI16:1,2010-07-01T14:00:00Z,29.4012,-89.0355,9.655,11111222 
WAVCIS,ioos:station:WAVCIS:CSI16:1,2010-07-01T15:00:00Z,29.4012,-89.0355,9.66,11111222 
WAVCIS,ioos:station:WAVCIS:CSI16:1,2010-07-01T16:00:00Z,29.4012,-89.0355,9.659,11111222 
WAVCIS,ioos:station:WAVCIS:CSI16:1,2010-07-01T17:00:00Z,29.4012,-89.0355,9.648,11111222 
WAVCIS,ioos:station:WAVCIS:CSI16:1,2010-07-01T18:00:00Z,29.4012,-89.0355,9.641,11111222 
WAVCIS,ioos:station:WAVCIS:CSI16:1,2010-07-01T19:00:00Z,29.4012,-89.0355,9.623,11111222 
WAVCIS,ioos:station:WAVCIS:CSI16:1,2010-07-01T20:00:00Z,29.4012,-89.0355,9.598,11111222 
WAVCIS,ioos:station:WAVCIS:CSI16:1,2010-07-01T21:00:00Z,29.4012,-89.0355,9.543,11111222 
WAVCIS,ioos:station:WAVCIS:CSI16:1,2010-07-01T22:00:00Z,29.4012,-89.0355,9.5,11111222 
WAVCIS,ioos:station:WAVCIS:CSI16:1,2010-07-01T23:00:00Z,29.4012,-89.0355,9.469,11111222 
WAVCIS,ioos:station:WAVCIS:CSI16:1,2010-07-02T00:00:00Z,29.4012,-89.0355,9.429,11111222 
WAVCIS,ioos:station:WAVCIS:CSI16:1,2010-07-02T01:00:00Z,29.4012,-89.0355,9.422,11111222 
WAVCIS,ioos:station:WAVCIS:CSI16:1,2010-07-02T02:00:00Z,29.4012,-89.0355,9.43,11111222 
WAVCIS,ioos:station:WAVCIS:CSI16:1,2010-07-02T03:00:00Z,29.4012,-89.0355,9.424,11111222 
WAVCIS,ioos:station:WAVCIS:CSI16:1,2010-07-02T04:00:00Z,29.4012,-89.0355,9.444,11111222 
WAVCIS,ioos:station:WAVCIS:CSI16:1,2010-07-02T05:00:00Z,29.4012,-89.0355,9.461,11111222 
WAVCIS,ioos:station:WAVCIS:CSI16:1,2010-07-02T06:00:00Z,29.4012,-89.0355,9.478,11111222 
WAVCIS,ioos:station:WAVCIS:CSI16:1,2010-07-02T07:00:00Z,29.4012,-89.0355,9.491,11111222 
WAVCIS,ioos:station:WAVCIS:CSI16:1,2010-07-02T08:00:00Z,29.4012,-89.0355,9.52,11111222 
WAVCIS,ioos:station:WAVCIS:CSI16:1,2010-07-02T09:00:00Z,29.4012,-89.0355,9.533,11111222 
WAVCIS,ioos:station:WAVCIS:CSI16:1,2010-07-02T10:00:00Z,29.4012,-89.0355,9.549,11111222 
WAVCIS,ioos:station:WAVCIS:CSI16:1,2010-07-02T11:00:00Z,29.4012,-89.0355,9.562,11111222 
WAVCIS,ioos:station:WAVCIS:CSI16:1,2010-07-02T12:00:00Z,29.4012,-89.0355,9.556,11111222 
WAVCIS,ioos:station:WAVCIS:CSI16:1,2010-07-02T13:00:00Z,29.4012,-89.0355,9.574,11111222 
WAVCIS,ioos:station:WAVCIS:CSI16:1,2010-07-02T14:00:00Z,29.4012,-89.0355,9.582,11111222 
WAVCIS,ioos:station:WAVCIS:CSI16:1,2010-07-02T15:00:00Z,29.4012,-89.0355,9.596,11111222 
WAVCIS,ioos:station:WAVCIS:CSI16:1,2010-07-02T16:00:00Z,29.4012,-89.0355,9.585,11111222 
WAVCIS,ioos:station:WAVCIS:CSI16:1,2010-07-02T17:00:00Z,29.4012,-89.0355,9.588,11111222 
WAVCIS,ioos:station:WAVCIS:CSI16:1,2010-07-02T18:00:00Z,29.4012,-89.0355,9.57,11111222 
WAVCIS,ioos:station:WAVCIS:CSI16:1,2010-07-02T19:00:00Z,29.4012,-89.0355,9.56,11111222 
WAVCIS,ioos:station:WAVCIS:CSI16:1,2010-07-02T20:00:00Z,29.4012,-89.0355,9.547,11111222 
WAVCIS,ioos:station:WAVCIS:CSI16:1,2010-07-02T21:00:00Z,29.4012,-89.0355,9.517,11111222 
WAVCIS,ioos:station:WAVCIS:CSI16:1,2010-07-02T22:00:00Z,29.4012,-89.0355,9.491,11111222 
WAVCIS,ioos:station:WAVCIS:CSI16:1,2010-07-02T23:00:00Z,29.4012,-89.0355,9.476,11111222 
WAVCIS,ioos:station:WAVCIS:CSI16:1,2010-07-03T00:00:00Z,29.4012,-89.0355,9.461,11111222 
WAVCIS,ioos:station:WAVCIS:CSI16:1,2010-07-03T01:00:00Z,29.4012,-89.0355,9.459,11111222 
WAVCIS,ioos:station:WAVCIS:CSI16:1,2010-07-03T02:00:00Z,29.4012,-89.0355,9.476,11111222 
WAVCIS,ioos:station:WAVCIS:CSI16:1,2010-07-03T03:00:00Z,29.4012,-89.0355,9.474,11111222 
WAVCIS,ioos:station:WAVCIS:CSI16:1,2010-07-03T04:00:00Z,29.4012,-89.0355,9.488,11111222 
WAVCIS,ioos:station:WAVCIS:CSI16:1,2010-07-03T05:00:00Z,29.4012,-89.0355,9.514,11111222 
WAVCIS,ioos:station:WAVCIS:CSI16:1,2010-07-03T06:00:00Z,29.4012,-89.0355,9.524,11111222 
WAVCIS,ioos:station:WAVCIS:CSI16:1,2010-07-03T07:00:00Z,29.4012,-89.0355,9.554,11111222 
WAVCIS,ioos:station:WAVCIS:CSI16:1,2010-07-03T08:00:00Z,29.4012,-89.0355,9.583,11111222 
WAVCIS,ioos:station:WAVCIS:CSI16:1,2010-07-03T09:00:00Z,29.4012,-89.0355,9.611,11111222 
WAVCIS,ioos:station:WAVCIS:CSI16:1,2010-07-03T10:00:00Z,29.4012,-89.0355,9.634,11111222 
WAVCIS,ioos:station:WAVCIS:CSI16:1,2010-07-03T11:00:00Z,29.4012,-89.0355,9.652,11111222 
WAVCIS,ioos:station:WAVCIS:CSI16:1,2010-07-03T12:00:00Z,29.4012,-89.0355,9.664,11111222 
WAVCIS,ioos:station:WAVCIS:CSI16:1,2010-07-03T13:00:00Z,29.4012,-89.0355,9.673,11111222 
WAVCIS,ioos:station:WAVCIS:CSI16:1,2010-07-03T14:00:00Z,29.4012,-89.0355,9.685,11111222 
WAVCIS,ioos:station:WAVCIS:CSI16:1,2010-07-03T15:00:00Z,29.4012,-89.0355,9.664,11111222 
WAVCIS,ioos:station:WAVCIS:CSI16:1,2010-07-03T16:00:00Z,29.4012,-89.0355,9.67,11111222 
WAVCIS,ioos:station:WAVCIS:CSI16:1,2010-07-03T17:00:00Z,29.4012,-89.0355,9.676,11111222 
WAVCIS,ioos:station:WAVCIS:CSI16:1,2010-07-03T18:00:00Z,29.4012,-89.0355,9.665,11111222 
WAVCIS,ioos:station:WAVCIS:CSI16:1,2010-07-03T19:00:00Z,29.4012,-89.0355,9.651,11111222 
WAVCIS,ioos:station:WAVCIS:CSI16:1,2010-07-03T20:00:00Z,29.4012,-89.0355,9.668,11111222 
WAVCIS,ioos:station:WAVCIS:CSI16:1,2010-07-03T21:00:00Z,29.4012,-89.0355,9.648,11111222 
WAVCIS,ioos:station:WAVCIS:CSI16:1,2010-07-03T22:00:00Z,29.4012,-89.0355,9.632,11111222 
WAVCIS,ioos:station:WAVCIS:CSI16:1,2010-07-03T23:00:00Z,29.4012,-89.0355,9.634,11111222 
WAVCIS,ioos:station:WAVCIS:CSI16:1,2010-07-04T00:00:00Z,29.4012,-89.0355,9.623,11111222 
WAVCIS,ioos:station:WAVCIS:CSI16:1,2010-07-04T01:00:00Z,29.4012,-89.0355,9.616,11111222 
WAVCIS,ioos:station:WAVCIS:CSI16:1,2010-07-04T02:00:00Z,29.4012,-89.0355,9.631,11111222 
WAVCIS,ioos:station:WAVCIS:CSI16:1,2010-07-04T03:00:00Z,29.4012,-89.0355,9.652,11111222 
WAVCIS,ioos:station:WAVCIS:CSI16:1,2010-07-04T04:00:00Z,29.4012,-89.0355,9.667,11111222 
WAVCIS,ioos:station:WAVCIS:CSI16:1,2010-07-04T05:00:00Z,29.4012,-89.0355,9.675,11111222 
WAVCIS,ioos:station:WAVCIS:CSI16:1,2010-07-04T06:00:00Z,29.4012,-89.0355,9.701,11111222 
WAVCIS,ioos:station:WAVCIS:CSI16:1,2010-07-04T07:00:00Z,29.4012,-89.0355,9.711,11111222 
WAVCIS,ioos:station:WAVCIS:CSI16:1,2010-07-04T08:00:00Z,29.4012,-89.0355,9.718,11111222 
WAVCIS,ioos:station:WAVCIS:CSI16:1,2010-07-04T09:00:00Z,29.4012,-89.0355,9.72,11111222 
WAVCIS,ioos:station:WAVCIS:CSI16:1,2010-07-04T10:00:00Z,29.4012,-89.0355,9.727,11111222 
WAVCIS,ioos:station:WAVCIS:CSI16:1,2010-07-04T11:00:00Z,29.4012,-89.0355,9.711,11111222 
WAVCIS,ioos:station:WAVCIS:CSI16:1,2010-07-04T12:00:00Z,29.4012,-89.0355,9.706,11111222 
WAVCIS,ioos:station:WAVCIS:CSI16:1,2010-07-04T13:00:00Z,29.4012,-89.0355,9.704,11111222 
WAVCIS,ioos:station:WAVCIS:CSI16:1,2010-07-04T14:00:00Z,29.4012,-89.0355,9.666,11111222 
WAVCIS,ioos:station:WAVCIS:CSI16:1,2010-07-04T15:00:00Z,29.4012,-89.0355,9.655,11111222 
WAVCIS,ioos:station:WAVCIS:CSI16:1,2010-07-04T16:00:00Z,29.4012,-89.0355,9.645,11111222 
WAVCIS,ioos:station:WAVCIS:CSI16:1,2010-07-04T17:00:00Z,29.4012,-89.0355,9.632,11111222 
WAVCIS,ioos:station:WAVCIS:CSI16:1,2010-07-04T18:00:00Z,29.4012,-89.0355,9.6,11111222 
WAVCIS,ioos:station:WAVCIS:CSI16:1,2010-07-04T19:00:00Z,29.4012,-89.0355,9.599,11111222 
WAVCIS,ioos:station:WAVCIS:CSI16:1,2010-07-04T20:00:00Z,29.4012,-89.0355,9.597,11111222 
WAVCIS,ioos:station:WAVCIS:CSI16:1,2010-07-04T21:00:00Z,29.4012,-89.0355,9.588,11111222 
WAVCIS,ioos:station:WAVCIS:CSI16:1,2010-07-04T22:00:00Z,29.4012,-89.0355,9.594,11111222 
WAVCIS,ioos:station:WAVCIS:CSI16:1,2010-07-04T23:00:00Z,29.4012,-89.0355,9.596,11111222 
WAVCIS,ioos:station:WAVCIS:CSI16:1,2010-07-05T00:00:00Z,29.4012,-89.0355,9.609,11111222 
WAVCIS,ioos:station:WAVCIS:CSI16:1,2010-07-05T01:00:00Z,29.4012,-89.0355,9.617,11111222 
WAVCIS,ioos:station:WAVCIS:CSI16:1,2010-07-05T02:00:00Z,29.4012,-89.0355,9.644,11111222 
WAVCIS,ioos:station:WAVCIS:CSI16:1,2010-07-05T03:00:00Z,29.4012,-89.0355,9.661,11111222 
WAVCIS,ioos:station:WAVCIS:CSI16:1,2010-07-05T04:00:00Z,29.4012,-89.0355,9.696,11111222 
WAVCIS,ioos:station:WAVCIS:CSI16:1,2010-07-05T05:00:00Z,29.4012,-89.0355,9.737,11111222 
WAVCIS,ioos:station:WAVCIS:CSI16:1,2010-07-05T06:00:00Z,29.4012,-89.0355,9.739,11111222 
WAVCIS,ioos:station:WAVCIS:CSI16:1,2010-07-05T07:00:00Z,29.4012,-89.0355,9.756,11111222 
WAVCIS,ioos:station:WAVCIS:CSI16:1,2010-07-05T08:00:00Z,29.4012,-89.0355,9.778,11111222 
WAVCIS,ioos:station:WAVCIS:CSI16:1,2010-07-05T09:00:00Z,29.4012,-89.0355,9.769,11111222 
WAVCIS,ioos:station:WAVCIS:CSI16:1,2010-07-05T10:00:00Z,29.4012,-89.0355,9.768,11111222 
WAVCIS,ioos:station:WAVCIS:CSI16:1,2010-07-05T11:00:00Z,29.4012,-89.0355,9.771,11111222 
WAVCIS,ioos:station:WAVCIS:CSI16:1,2010-07-05T12:00:00Z,29.4012,-89.0355,9.758,11111222 
WAVCIS,ioos:station:WAVCIS:CSI16:1,2010-07-05T13:00:00Z,29.4012,-89.0355,9.725,11111222 
WAVCIS,ioos:station:WAVCIS:CSI16:1,2010-07-05T14:00:00Z,29.4012,-89.0355,9.704,11111222 
WAVCIS,ioos:station:WAVCIS:CSI16:1,2010-07-05T15:00:00Z,29.4012,-89.0355,9.657,11111222 
WAVCIS,ioos:station:WAVCIS:CSI16:1,2010-07-05T16:00:00Z,29.4012,-89.0355,9.585,11111222 
WAVCIS,ioos:station:WAVCIS:CSI16:1,2010-07-05T17:00:00Z,29.4012,-89.0355,9.552,11111222 
WAVCIS,ioos:station:WAVCIS:CSI16:1,2010-07-05T18:00:00Z,29.4012,-89.0355,9.521,11111222 
WAVCIS,ioos:station:WAVCIS:CSI16:1,2010-07-05T19:00:00Z,29.4012,-89.0355,9.506,11111222 
WAVCIS,ioos:station:WAVCIS:CSI16:1,2010-07-05T20:00:00Z,29.4012,-89.0355,9.484,11111222 
WAVCIS,ioos:station:WAVCIS:CSI16:1,2010-07-05T21:00:00Z,29.4012,-89.0355,9.46,11111222 
WAVCIS,ioos:station:WAVCIS:CSI16:1,2010-07-05T22:00:00Z,29.4012,-89.0355,9.455,11111222 
WAVCIS,ioos:station:WAVCIS:CSI16:1,2010-07-05T23:00:00Z,29.4012,-89.0355,9.479,11111222 
WAVCIS,ioos:station:WAVCIS:CSI16:1,2010-07-06T00:00:00Z,29.4012,-89.0355,9.517,11111222 
WAVCIS,ioos:station:WAVCIS:CSI16:1,2010-07-06T01:00:00Z,29.4012,-89.0355,9.539,11111222 
WAVCIS,ioos:station:WAVCIS:CSI16:1,2010-07-06T02:00:00Z,29.4012,-89.0355,9.558,11111222 
WAVCIS,ioos:station:WAVCIS:CSI16:1,2010-07-06T03:00:00Z,29.4012,-89.0355,9.599,11111222 
WAVCIS,ioos:station:WAVCIS:CSI16:1,2010-07-06T04:00:00Z,29.4012,-89.0355,9.618,11111222 
WAVCIS,ioos:station:WAVCIS:CSI16:1,2010-07-06T05:00:00Z,29.4012,-89.0355,9.662,11111222 
WAVCIS,ioos:station:WAVCIS:CSI16:1,2010-07-06T06:00:00Z,29.4012,-89.0355,9.711,11111222 
WAVCIS,ioos:station:WAVCIS:CSI16:1,2010-07-06T07:00:00Z,29.4012,-89.0355,9.743,11111222 
WAVCIS,ioos:station:WAVCIS:CSI16:1,2010-07-06T08:00:00Z,29.4012,-89.0355,9.758,11111222 
WAVCIS,ioos:station:WAVCIS:CSI16:1,2010-07-06T09:00:00Z,29.4012,-89.0355,9.772,11111222 
WAVCIS,ioos:station:WAVCIS:CSI16:1,2010-07-06T10:00:00Z,29.4012,-89.0355,9.785,11111222 
WAVCIS,ioos:station:WAVCIS:CSI16:1,2010-07-06T11:00:00Z,29.4012,-89.0355,9.782,11111222 
WAVCIS,ioos:station:WAVCIS:CSI16:1,2010-07-06T12:00:00Z,29.4012,-89.0355,9.766,11111222 
WAVCIS,ioos:station:WAVCIS:CSI16:1,2010-07-06T13:00:00Z,29.4012,-89.0355,9.749,11111222 
WAVCIS,ioos:station:WAVCIS:CSI16:1,2010-07-06T14:00:00Z,29.4012,-89.0355,9.723,11111222 
WAVCIS,ioos:station:WAVCIS:CSI16:1,2010-07-06T15:00:00Z,29.4012,-89.0355,9.688,11111222 
WAVCIS,ioos:station:WAVCIS:CSI16:1,2010-07-06T16:00:00Z,29.4012,-89.0355,9.628,11111222 
WAVCIS,ioos:station:WAVCIS:CSI16:1,2010-07-06T17:00:00Z,29.4012,-89.0355,9.571,11111222 
WAVCIS,ioos:station:WAVCIS:CSI16:1,2010-07-06T18:00:00Z,29.4012,-89.0355,9.576,11111222 
WAVCIS,ioos:station:WAVCIS:CSI16:1,2010-07-06T19:00:00Z,29.4012,-89.0355,9.559,11111222 
WAVCIS,ioos:station:WAVCIS:CSI16:1,2010-07-06T20:00:00Z,29.4012,-89.0355,9.494,11111222 
WAVCIS,ioos:station:WAVCIS:CSI16:1,2010-07-06T21:00:00Z,29.4012,-89.0355,9.49,11111222 
WAVCIS,ioos:station:WAVCIS:CSI16:1,2010-07-06T22:00:00Z,29.4012,-89.0355,9.509,11111222 
WAVCIS,ioos:station:WAVCIS:CSI16:1,2010-07-06T23:00:00Z,29.4012,-89.0355,9.493,11111222 
WAVCIS,ioos:station:WAVCIS:CSI16:1,2010-07-07T00:00:00Z,29.4012,-89.0355,9.532,11111222 
WAVCIS,ioos:station:WAVCIS:CSI16:1,2010-07-07T01:00:00Z,29.4012,-89.0355,9.602,11111222 
WAVCIS,ioos:station:WAVCIS:CSI16:1,2010-07-07T02:00:00Z,29.4012,-89.0355,9.624,11111222 
WAVCIS,ioos:station:WAVCIS:CSI16:1,2010-07-07T03:00:00Z,29.4012,-89.0355,9.627,11111222 
WAVCIS,ioos:station:WAVCIS:CSI16:1,2010-07-07T04:00:00Z,29.4012,-89.0355,9.695,11111222 
WAVCIS,ioos:station:WAVCIS:CSI16:1,2010-07-07T05:00:00Z,29.4012,-89.0355,9.728,11111222 
WAVCIS,ioos:station:WAVCIS:CSI16:1,2010-07-07T06:00:00Z,29.4012,-89.0355,9.764,11111222 
WAVCIS,ioos:station:WAVCIS:CSI16:1,2010-07-07T07:00:00Z,29.4012,-89.0355,9.804,11111222 
WAVCIS,ioos:station:WAVCIS:CSI16:1,2010-07-07T08:00:00Z,29.4012,-89.0355,9.818,11111222 
WAVCIS,ioos:station:WAVCIS:CSI16:1,2010-07-07T09:00:00Z,29.4012,-89.0355,9.833,11111222 
WAVCIS,ioos:station:WAVCIS:CSI16:1,2010-07-07T10:00:00Z,29.4012,-89.0355,9.843,11111222 
WAVCIS,ioos:station:WAVCIS:CSI16:1,2010-07-07T11:00:00Z,29.4012,-89.0355,9.857,11111222 
WAVCIS,ioos:station:WAVCIS:CSI16:1,2010-07-07T12:00:00Z,29.4012,-89.0355,9.845,11111222 
WAVCIS,ioos:station:WAVCIS:CSI16:1,2010-07-07T13:00:00Z,29.4012,-89.0355,9.816,11111222 
WAVCIS,ioos:station:WAVCIS:CSI16:1,2010-07-07T14:00:00Z,29.4012,-89.0355,9.77,11111222 
WAVCIS,ioos:station:WAVCIS:CSI16:1,2010-07-07T15:00:00Z,29.4012,-89.0355,9.716,11111222 
WAVCIS,ioos:station:WAVCIS:CSI16:1,2010-07-07T16:00:00Z,29.4012,-89.0355,9.651,11111222 
WAVCIS,ioos:station:WAVCIS:CSI16:1,2010-07-07T17:00:00Z,29.4012,-89.0355,9.581,11111222 
WAVCIS,ioos:station:WAVCIS:CSI16:1,2010-07-07T18:00:00Z,29.4012,-89.0355,9.522,11111222 
WAVCIS,ioos:station:WAVCIS:CSI16:1,2010-07-07T19:00:00Z,29.4012,-89.0355,9.462,11111222 
WAVCIS,ioos:station:WAVCIS:CSI16:1,2010-07-07T20:00:00Z,29.4012,-89.0355,9.416,11111222 
WAVCIS,ioos:station:WAVCIS:CSI16:1,2010-07-07T21:00:00Z,29.4012,-89.0355,9.376,11111222 
WAVCIS,ioos:station:WAVCIS:CSI16:1,2010-07-07T22:00:00Z,29.4012,-89.0355,9.368,11111222 
WAVCIS,ioos:station:WAVCIS:CSI16:1,2010-07-07T23:00:00Z,29.4012,-89.0355,9.367,11111222 
WAVCIS,ioos:station:WAVCIS:CSI16:1,2010-07-08T00:00:00Z,29.4012,-89.0355,9.396,11111222 
WAVCIS,ioos:station:WAVCIS:CSI16:1,2010-07-08T01:00:00Z,29.4012,-89.0355,9.426,11111222 
WAVCIS,ioos:station:WAVCIS:CSI16:1,2010-07-08T02:00:00Z,29.4012,-89.0355,9.473,11111222 
WAVCIS,ioos:station:WAVCIS:CSI16:1,2010-07-08T03:00:00Z,29.4012,-89.0355,9.518,11111222 
WAVCIS,ioos:station:WAVCIS:CSI16:1,2010-07-08T04:00:00Z,29.4012,-89.0355,9.561,11111222 
WAVCIS,ioos:station:WAVCIS:CSI16:1,2010-07-08T05:00:00Z,29.4012,-89.0355,9.605,11111222 
WAVCIS,ioos:station:WAVCIS:CSI16:1,2010-07-08T06:00:00Z,29.4012,-89.0355,9.64,11111222 
WAVCIS,ioos:station:WAVCIS:CSI16:1,2010-07-08T07:00:00Z,29.4012,-89.0355,9.686,11111222 
WAVCIS,ioos:station:WAVCIS:CSI16:1,2010-07-08T08:00:00Z,29.4012,-89.0355,9.731,11111222 
WAVCIS,ioos:station:WAVCIS:CSI16:1,2010-07-08T09:00:00Z,29.4012,-89.0355,9.764,11111222 
WAVCIS,ioos:station:WAVCIS:CSI16:1,2010-07-08T10:00:00Z,29.4012,-89.0355,9.779,11111222 
WAVCIS,ioos:station:WAVCIS:CSI16:1,2010-07-08T11:00:00Z,29.4012,-89.0355,9.8,11111222 
WAVCIS,ioos:station:WAVCIS:CSI16:1,2010-07-08T12:00:00Z,29.4012,-89.0355,9.804,11111222 
WAVCIS,ioos:station:WAVCIS:CSI16:1,2010-07-08T13:00:00Z,29.4012,-89.0355,9.79,11111222 
WAVCIS,ioos:station:WAVCIS:CSI16:1,2010-07-08T14:00:00Z,29.4012,-89.0355,9.762,11111222 
WAVCIS,ioos:station:WAVCIS:CSI16:1,2010-07-08T15:00:00Z,29.4012,-89.0355,9.715,11111222 
WAVCIS,ioos:station:WAVCIS:CSI16:1,2010-07-08T16:00:00Z,29.4012,-89.0355,9.647,11111222 
WAVCIS,ioos:station:WAVCIS:CSI16:1,2010-07-08T17:00:00Z,29.4012,-89.0355,9.572,11111222 
WAVCIS,ioos:station:WAVCIS:CSI16:1,2010-07-08T18:00:00Z,29.4012,-89.0355,9.484,11111222 
WAVCIS,ioos:station:WAVCIS:CSI16:1,2010-07-08T19:00:00Z,29.4012,-89.0355,9.408,11111222 
WAVCIS,ioos:station:WAVCIS:CSI16:1,2010-07-08T20:00:00Z,29.4012,-89.0355,9.355,11111222 
WAVCIS,ioos:station:WAVCIS:CSI16:1,2010-07-08T21:00:00Z,29.4012,-89.0355,9.307,11111222 
WAVCIS,ioos:station:WAVCIS:CSI16:1,2010-07-08T22:00:00Z,29.4012,-89.0355,9.284,11111222 
WAVCIS,ioos:station:WAVCIS:CSI16:1,2010-07-08T23:00:00Z,29.4012,-89.0355,9.277,11111222 
WAVCIS,ioos:station:WAVCIS:CSI16:1,2010-07-09T00:00:00Z,29.4012,-89.0355,9.309,11111222 
WAVCIS,ioos:station:WAVCIS:CSI16:1,2010-07-09T01:00:00Z,29.4012,-89.0355,9.334,11111222 
WAVCIS,ioos:station:WAVCIS:CSI16:1,2010-07-09T02:00:00Z,29.4012,-89.0355,9.382,11111222 
WAVCIS,ioos:station:WAVCIS:CSI16:1,2010-07-09T03:00:00Z,29.4012,-89.0355,9.44,11111222 
WAVCIS,ioos:station:WAVCIS:CSI16:1,2010-07-09T04:00:00Z,29.4012,-89.0355,9.484,11111222 
WAVCIS,ioos:station:WAVCIS:CSI16:1,2010-07-09T05:00:00Z,29.4012,-89.0355,9.542,11111222 
WAVCIS,ioos:station:WAVCIS:CSI16:1,2010-07-09T06:00:00Z,29.4012,-89.0355,9.587,11111222 
WAVCIS,ioos:station:WAVCIS:CSI16:1,2010-07-09T07:00:00Z,29.4012,-89.0355,9.622,11111222 
WAVCIS,ioos:station:WAVCIS:CSI16:1,2010-07-09T08:00:00Z,29.4012,-89.0355,9.675,11111222 
WAVCIS,ioos:station:WAVCIS:CSI16:1,2010-07-09T09:00:00Z,29.4012,-89.0355,9.715,11111222 
WAVCIS,ioos:station:WAVCIS:CSI16:1,2010-07-09T10:00:00Z,29.4012,-89.0355,9.757,11111222 
WAVCIS,ioos:station:WAVCIS:CSI16:1,2010-07-09T11:00:00Z,29.4012,-89.0355,9.781,11111222 
WAVCIS,ioos:station:WAVCIS:CSI16:1,2010-07-09T12:00:00Z,29.4012,-89.0355,9.791,11111222 
WAVCIS,ioos:station:WAVCIS:CSI16:1,2010-07-09T13:00:00Z,29.4012,-89.0355,9.789,11111222 
WAVCIS,ioos:station:WAVCIS:CSI16:1,2010-07-09T14:00:00Z,29.4012,-89.0355,9.765,11111222 
WAVCIS,ioos:station:WAVCIS:CSI16:1,2010-07-09T15:00:00Z,29.4012,-89.0355,9.722,11111222 
WAVCIS,ioos:station:WAVCIS:CSI16:1,2010-07-09T16:00:00Z,29.4012,-89.0355,9.651,11111222 
WAVCIS,ioos:station:WAVCIS:CSI16:1,2010-07-09T17:00:00Z,29.4012,-89.0355,9.568,11111222 
WAVCIS,ioos:station:WAVCIS:CSI16:1,2010-07-09T18:00:00Z,29.4012,-89.0355,9.471,11111222 
WAVCIS,ioos:station:WAVCIS:CSI16:1,2010-07-09T19:00:00Z,29.4012,-89.0355,9.36,11111222 
WAVCIS,ioos:station:WAVCIS:CSI16:1,2010-07-09T20:00:00Z,29.4012,-89.0355,9.271,11111222 
WAVCIS,ioos:station:WAVCIS:CSI16:1,2010-07-09T21:00:00Z,29.4012,-89.0355,9.202,11111222 
WAVCIS,ioos:station:WAVCIS:CSI16:1,2010-07-09T22:00:00Z,29.4012,-89.0355,9.16,11111222 
WAVCIS,ioos:station:WAVCIS:CSI16:1,2010-07-09T23:00:00Z,29.4012,-89.0355,9.134,11111222 
WAVCIS,ioos:station:WAVCIS:CSI16:1,2010-07-10T00:00:00Z,29.4012,-89.0355,9.163,11111222 
WAVCIS,ioos:station:WAVCIS:CSI16:1,2010-07-10T01:00:00Z,29.4012,-89.0355,9.176,11111222 
WAVCIS,ioos:station:WAVCIS:CSI16:1,2010-07-10T02:00:00Z,29.4012,-89.0355,9.225,11111222 
WAVCIS,ioos:station:WAVCIS:CSI16:1,2010-07-10T03:00:00Z,29.4012,-89.0355,9.279,11111222 
WAVCIS,ioos:station:WAVCIS:CSI16:1,2010-07-10T04:00:00Z,29.4012,-89.0355,9.337,11111222 
WAVCIS,ioos:station:WAVCIS:CSI16:1,2010-07-10T05:00:00Z,29.4012,-89.0355,9.39,11111222 
WAVCIS,ioos:station:WAVCIS:CSI16:1,2010-07-10T06:00:00Z,29.4012,-89.0355,9.445,11111222 
WAVCIS,ioos:station:WAVCIS:CSI16:1,2010-07-10T07:00:00Z,29.4012,-89.0355,9.498,11111222 
WAVCIS,ioos:station:WAVCIS:CSI16:1,2010-07-10T08:00:00Z,29.4012,-89.0355,9.567,11111222 
WAVCIS,ioos:station:WAVCIS:CSI16:1,2010-07-10T09:00:00Z,29.4012,-89.0355,9.622,11111222 
WAVCIS,ioos:station:WAVCIS:CSI16:1,2010-07-10T10:00:00Z,29.4012,-89.0355,9.672,11111222 
WAVCIS,ioos:station:WAVCIS:CSI16:1,2010-07-10T11:00:00Z,29.4012,-89.0355,9.718,11111222 
WAVCIS,ioos:station:WAVCIS:CSI16:1,2010-07-10T12:00:00Z,29.4012,-89.0355,9.744,11111222 
WAVCIS,ioos:station:WAVCIS:CSI16:1,2010-07-10T13:00:00Z,29.4012,-89.0355,9.76,11111222 
WAVCIS,ioos:station:WAVCIS:CSI16:1,2010-07-10T14:00:00Z,29.4012,-89.0355,9.767,11111222 
WAVCIS,ioos:station:WAVCIS:CSI16:1,2010-07-10T15:00:00Z,29.4012,-89.0355,9.734,11111222 
WAVCIS,ioos:station:WAVCIS:CSI16:1,2010-07-10T16:00:00Z,29.4012,-89.0355,9.679,11111222 
WAVCIS,ioos:station:WAVCIS:CSI16:1,2010-07-10T17:00:00Z,29.4012,-89.0355,9.601,11111222 
WAVCIS,ioos:station:WAVCIS:CSI16:1,2010-07-10T18:00:00Z,29.4012,-89.0355,9.499,11111222 
WAVCIS,ioos:station:WAVCIS:CSI16:1,2010-07-10T19:00:00Z,29.4012,-89.0355,9.391,11111222 
WAVCIS,ioos:station:WAVCIS:CSI16:1,2010-07-10T20:00:00Z,29.4012,-89.0355,9.278,11111222 
WAVCIS,ioos:station:WAVCIS:CSI16:1,2010-07-10T21:00:00Z,29.4012,-89.0355,9.169,11111222 
WAVCIS,ioos:station:WAVCIS:CSI16:1,2010-07-10T22:00:00Z,29.4012,-89.0355,9.116,11111222 
WAVCIS,ioos:station:WAVCIS:CSI16:1,2010-07-10T23:00:00Z,29.4012,-89.0355,9.075,11111222 
WAVCIS,ioos:station:WAVCIS:CSI16:1,2010-07-11T00:00:00Z,29.4012,-89.0355,9.071,11111222 
WAVCIS,ioos:station:WAVCIS:CSI16:1,2010-07-11T01:00:00Z,29.4012,-89.0355,9.079,11111222 
WAVCIS,ioos:station:WAVCIS:CSI16:1,2010-07-11T02:00:00Z,29.4012,-89.0355,9.109,11111222 
WAVCIS,ioos:station:WAVCIS:CSI16:1,2010-07-11T03:00:00Z,29.4012,-89.0355,9.158,11111222 
WAVCIS,ioos:station:WAVCIS:CSI16:1,2010-07-11T04:00:00Z,29.4012,-89.0355,9.215,11111222 
WAVCIS,ioos:station:WAVCIS:CSI16:1,2010-07-11T05:00:00Z,29.4012,-89.0355,9.272,11111222 
WAVCIS,ioos:station:WAVCIS:CSI16:1,2010-07-11T06:00:00Z,29.4012,-89.0355,9.334,11111222 
WAVCIS,ioos:station:WAVCIS:CSI16:1,2010-07-11T07:00:00Z,29.4012,-89.0355,9.39,11111222 
WAVCIS,ioos:station:WAVCIS:CSI16:1,2010-07-11T08:00:00Z,29.4012,-89.0355,9.448,11111222 
WAVCIS,ioos:station:WAVCIS:CSI16:1,2010-07-11T09:00:00Z,29.4012,-89.0355,9.519,11111222 
WAVCIS,ioos:station:WAVCIS:CSI16:1,2010-07-11T10:00:00Z,29.4012,-89.0355,9.579,11111222 
WAVCIS,ioos:station:WAVCIS:CSI16:1,2010-07-11T11:00:00Z,29.4012,-89.0355,9.641,11111222 
WAVCIS,ioos:station:WAVCIS:CSI16:1,2010-07-11T12:00:00Z,29.4012,-89.0355,9.69,11111222 
WAVCIS,ioos:station:WAVCIS:CSI16:1,2010-07-11T13:00:00Z,29.4012,-89.0355,9.72,11111222 
WAVCIS,ioos:station:WAVCIS:CSI16:1,2010-07-11T14:00:00Z,29.4012,-89.0355,9.752,11111222 
WAVCIS,ioos:station:WAVCIS:CSI16:1,2010-07-11T15:00:00Z,29.4012,-89.0355,9.746,11111222 
WAVCIS,ioos:station:WAVCIS:CSI16:1,2010-07-11T16:00:00Z,29.4012,-89.0355,9.725,11111222 
WAVCIS,ioos:station:WAVCIS:CSI16:1,2010-07-11T17:00:00Z,29.4012,-89.0355,9.656,11111222 
WAVCIS,ioos:station:WAVCIS:CSI16:1,2010-07-11T18:00:00Z,29.4012,-89.0355,9.567,11111222 
WAVCIS,ioos:station:WAVCIS:CSI16:1,2010-07-11T19:00:00Z,29.4012,-89.0355,9.45,11111222 
WAVCIS,ioos:station:WAVCIS:CSI16:1,2010-07-11T20:00:00Z,29.4012,-89.0355,9.321,11111222 
WAVCIS,ioos:station:WAVCIS:CSI16:1,2010-07-11T21:00:00Z,29.4012,-89.0355,9.196,11111222 
WAVCIS,ioos:station:WAVCIS:CSI16:1,2010-07-11T22:00:00Z,29.4012,-89.0355,9.09,11111222 
WAVCIS,ioos:station:WAVCIS:CSI16:1,2010-07-11T23:00:00Z,29.4012,-89.0355,9.041,11111222 
WAVCIS,ioos:station:WAVCIS:CSI16:1,2010-07-12T00:00:00Z,29.4012,-89.0355,9.017,11111222 
WAVCIS,ioos:station:WAVCIS:CSI16:1,2010-07-12T01:00:00Z,29.4012,-89.0355,9.006,11111222 
WAVCIS,ioos:station:WAVCIS:CSI16:1,2010-07-12T02:00:00Z,29.4012,-89.0355,9.012,11111222 
WAVCIS,ioos:station:WAVCIS:CSI16:1,2010-07-12T03:00:00Z,29.4012,-89.0355,9.067,11111222 
WAVCIS,ioos:station:WAVCIS:CSI16:1,2010-07-12T04:00:00Z,29.4012,-89.0355,9.103,11111222 